User: anonymous   Login
Location: Azul
(36.7830°S, 59.8500°W)
Time: 20:38:38
(UTC-03:00)
Language:

Oscar 11 - Orbit

View from above orbital plane
View from above orbital plane
View from above satellite
View from above satellite

Ground track
Ground track

The orbit data is extracted from the following two-line orbital elements,

1 14781U 84021B   21296.22719442  .00000224  00000-0  33451-4 0  9995
2 14781  97.6009 289.8285 0009145  30.6302 329.5445 14.83346201  4872
Epoch (UTC): 23 October 2021 05:27:09
Eccentricity: 0.0009145
inclination: 97.6009°
perigee height: 612 km
apogee height: 625 km
right ascension of ascending node: 289.8285°
argument of perigee: 30.6302°
revolutions per day: 14.83346201
mean anomaly at epoch: 329.5445°
orbit number at epoch: 487

The dashed part of the orbit path shows where the satellite is in the earth's shadow,  

DLR